Weather History for KOQT - June, 2013

Change the Weather History Date:

Saturday, June 22, 2013

  Actual Average (KTYS) Record (KTYS)
Temperature  
Mean Temperature 75 °F 77 °F  
Max Temperature 87 °F 87 °F 99 °F (1988)
Min Temperature 66 °F 66 °F 51 °F (1992)
Degree Days  
Heating Degree Days 0 0  
Month to date heating degree days 0  
Since 1 June heating degree days 0  
Since 1 July heating degree days 3633  
Cooling Degree Days 10 12  
Month to date cooling degree days 206  
Year to date cooling degree days 368  
Since 1 June cooling degree days 206  
Growing Degree Days 25 (Base 50)    
Moisture  
Dew Point 65 °F    
Average Humidity 72    
Maximum Humidity 97    
Minimum Humidity 46    
Precipitation  
Precipitation 0.00 in 0.13 in 1.80 in (1872)
Month to date precipitation 2.71  
Year to date precipitation 24.15  
Snow  
Snow 0.00 in 0.00 in - ()
Month to date snowfall 0.0  
Since 1 June snowfall 0.0  
Since 1 July snowfall 6.5  
Snow Depth -    
Sea Level Pressure  
Sea Level Pressure 30.16 in    
Wind  
Wind Speed 1 mph (East)    
Max Wind Speed 7 mph    
Max Gust Speed -    
Visibility 9 miles    
Events      
T = Trace of Precipitation, MM = Missing Value Source: NWS Daily Summary

Daily Weather History Graph

Daily Weather History Graph

Search for Another Location

Airport or City:

Trip Planner

Search our weather history database for the weather conditions in past years. The results will help you decide how hot, cold, wet, or windy it might be!

Date:

Astronomy

Jun. 22, 2013 Rise Set
Actual Time 6:20 AM EDT 8:57 PM EDT
Civil Twilight 5:50 AM EDT 9:27 PM EDT
Nautical Twilight 5:12 AM EDT 10:05 PM EDT
Astronomical Twilight 4:30 AM EDT 10:47 PM EDT
Moon 8:13 PM EDT (6/22) 5:30 AM EDT (6/22)
Length of Visible Light 15h 37m
Length of Day
14h 36m
Waxing Gibbous, 99% of the Moon is Illuminated
Jun 22
Waxing Gibbous
Jun 23
Full
Jun 30
Last Quarter
Jul 8
New
Jul 15
First Quarter

Hourly Weather History & Observations

Time (EDT) Temp. Heat Index Dew Point Humidity Pressure Visibility Wind Dir Wind Speed Gust Speed Precip Events Conditions
12:53 AM 69.1 °F - 66.0 °F 90% 30.18 in 10.0 mi Calm Calm - N/A   Clear
1:53 AM 68.0 °F - 66.0 °F 93% 30.17 in 10.0 mi Calm Calm - N/A   Clear
2:53 AM 68.0 °F - 66.0 °F 93% 30.17 in 9.0 mi Calm Calm - N/A   Clear
3:53 AM 66.9 °F - 66.0 °F 97% 30.14 in 6.0 mi NW 3.5 mph - N/A   Clear
4:53 AM 66.9 °F - 64.9 °F 93% 30.15 in 8.0 mi Calm Calm - N/A   Clear
5:53 AM 66.0 °F - 64.9 °F 96% 30.17 in 8.0 mi Calm Calm - N/A   Clear
6:53 AM 66.0 °F - 64.9 °F 96% 30.19 in 6.0 mi Calm Calm - N/A   Mostly Cloudy
7:53 AM 69.1 °F - 66.0 °F 90% 30.21 in 6.0 mi Calm Calm - N/A   Clear
8:53 AM 73.0 °F - 66.9 °F 81% 30.22 in 10.0 mi Calm Calm - N/A   Clear
9:53 AM 75.9 °F - 66.0 °F 71% 30.23 in 10.0 mi Calm Calm - N/A   Clear
10:53 AM 80.1 °F 81.9 °F 64.9 °F 60% 30.22 in 10.0 mi Variable 3.5 mph - N/A   Clear
11:53 AM 82.0 °F 83.8 °F 64.9 °F 56% 30.21 in 10.0 mi East 3.5 mph - N/A   Partly Cloudy
12:53 PM 82.9 °F 84.4 °F 64.0 °F 53% 30.20 in 10.0 mi Calm Calm - N/A   Partly Cloudy
1:53 PM 84.0 °F 85.8 °F 64.9 °F 53% 30.19 in 10.0 mi East 3.5 mph - N/A   Scattered Clouds
2:53 PM 84.9 °F 86.1 °F 64.0 °F 49% 30.16 in 10.0 mi Variable 6.9 mph - N/A   Partly Cloudy
3:53 PM 84.9 °F 85.4 °F 62.1 °F 46% 30.14 in 10.0 mi Calm Calm - N/A   Scattered Clouds
4:53 PM 84.0 °F 85.8 °F 64.9 °F 53% 30.12 in 10.0 mi South 5.8 mph - N/A   Clear
5:53 PM 84.9 °F 85.9 °F 63.0 °F 48% 30.09 in 10.0 mi Variable 5.8 mph - N/A   Clear
6:53 PM 84.9 °F 85.4 °F 62.1 °F 46% 30.08 in 10.0 mi Calm Calm - N/A   Clear
7:53 PM 82.9 °F 84.6 °F 64.9 °F 54% 30.07 in 10.0 mi Calm Calm - N/A   Clear
8:53 PM 80.1 °F 82.1 °F 66.0 °F 62% 30.09 in 10.0 mi Calm Calm - N/A   Clear
9:53 PM 75.9 °F - 66.9 °F 74% 30.11 in 10.0 mi Calm Calm - N/A   Clear
10:53 PM 75.0 °F - 68.0 °F 79% 30.13 in 10.0 mi Calm Calm - N/A   Partly Cloudy
11:53 PM 71.1 °F - 68.0 °F 90% 30.13 in 10.0 mi Calm Calm - N/A   Partly Cloudy